Location: Newark
(44.6768°N, 22.5302°E)
Time: 12:54:12
(UTC+00:00)

AO-92 - Pass Details

Date: 04 July 2022
Orbit: 470 x 481 km, 97.4° (Epoch: 07 August)

Event Time Altitude Azimuth Distance (km) Brightness Sun altitude
Exits shadow 19:56:57 21° 118° (ESE) 1,111 ? -13.5°
Maximum altitude 19:58:35 32° 71° (ENE) 840 ? -13.7°
Drops below altitude 10° 20:01:50 10° 7° (N) 1,670 ? -14.0°
Sets 20:04:02 0° 357° (N) 2,557 ? -14.3°
